User: anonymous   Login
Location: Mentone
(34.5413°N, 85.5351°W)
Time: 22:32:37
(UTC-06:00)
Language:

Transit 2A Rocket - Orbit

View from above orbital plane
View from above orbital plane
View from above satellite
View from above satellite

Ground track
Ground track

The orbit data is extracted from the following two-line orbital elements,

1 00047U 60007C   17055.51629733  .00000014  00000-0  28362-4 0  9998
2 00047  66.6664 147.0839 0220822 108.2143 254.3133 14.41897304960821
Epoch (UTC): 24 February 2017 12:23:28
Eccentricity: 0.0220822
inclination: 66.6664°
perigee height: 595 km
apogee height: 909 km
right ascension of ascending node: 147.0839°
argument of perigee: 108.2143°
revolutions per day: 14.41897304
mean anomaly at epoch: 254.3133°
orbit number at epoch: 96082

The dashed part of the orbit path shows where the satellite is in the earth's shadow,  

DLR